Location: Cactus School
(34.5700°N, 118.0931°W)
Time: 02:19:02
(UTC-07:00)

Vanguard 1 Rocket - Pass Details

Date: 22 April 2024
Orbit: 650 x 4220 km, 34.3° (Epoch: 22 May)

Event Time Altitude Azimuth Distance (km) Brightness Sun altitude
Rises 23:31:23 0° 280° (W) 3,928 11.1 -39.1°
Reaches altitude 10° 23:33:37 10° 275° (W) 3,241 10.5 -39.3°
Enters shadow 23:37:45 35° 254° (WSW) 2,324 9.3 -39.6°
Maximum altitude 23:41:39 52° 201° (SSW) 2,243 - -39.9°
Drops below altitude 10° 23:57:14 10° 131° (SE) 6,017 - -41.0°
Sets 00:03:13 0° 128° (SE) 7,552 - -41.4°
